NAVSTAR 43 (USA 132) 1 24876U 97035A 25185.19213070 -.00000022 00000-0 00000-0 0 9990 2 24876 55.8161 112.1896 0092194 54.5898 306.2571 2.00562555204973 NAVSTAR 46 (USA 145) 1 25933U 99055A 25185.79250294 -.00000098 00000-0 00000-0 0 9997 2 25933 51.7727 310.6342 0115075 164.0031 199.5634 2.00556032188610 NAVSTAR 47 (USA 150) 1 26360U 00025A 25185.58227693 -.00000086 00000-0 00000-0 0 9992 2 26360 54.9456 33.3506 0035410 232.4867 135.7864 2.00579676184309 NAVSTAR 48 (USA 151) 1 26407U 00040A 25185.78502435 .00000059 00000-0 00000-0 0 9992 2 26407 54.9337 228.9648 0132861 298.8328 58.9124 2.00566213182973 NAVSTAR 49 (USA 154) 1 26605U 00071A 25184.67793549 -.00000025 00000-0 00000-0 0 9995 2 26605 55.4328 108.7288 0165293 263.4037 301.9175 2.00556116180521 NAVSTAR 50 (USA 156) 1 26690U 01004A 25184.82159344 -.00000093 00000-0 00000-0 0 9997 2 26690 54.9463 45.4642 0002714 21.5895 204.8566 1.91588557176863 NAVSTAR 51 (USA 166) 1 27663U 03005A 25185.67914723 .00000058 00000-0 00000-0 0 9995 2 27663 54.9683 228.7789 0142543 50.2496 8.0479 2.00553379164349 NAVSTAR 52 (USA 168) 1 27704U 03010A 25183.50698652 -.00000101 00000-0 00000-0 0 9997 2 27704 54.9847 338.4159 0257369 339.5823 199.6875 2.00555963163096 NAVSTAR 53 (USA 175) 1 28129U 03058A 25185.32833276 -.00000091 00000-0 00000-0 0 9994 2 28129 54.7996 36.1693 0001686 331.8895 28.1542 1.92678834157766 NAVSTAR 54 (USA 177) 1 28190U 04009A 25186.46664245 -.00000068 00000-0 00000+0 0 9996 2 28190 55.1209 289.6757 0106294 162.2296 264.4434 2.00566954156026 NAVSTAR 55 (USA 178) 1 28361U 04023A 25185.38899980 -.00000044 00000-0 00000-0 0 9993 2 28361 54.6298 100.7794 0155696 292.1811 250.7933 2.00565155154064 NAVSTAR 56 (USA 180) 1 28474U 04045A 25185.76120985 -.00000099 00000-0 00000-0 0 9996 2 28474 55.3158 338.8751 0165817 304.2736 32.4074 2.00562383151457 NAVSTAR 57 (USA 183) 1 28874U 05038A 25185.35338385 -.00000073 00000-0 00000-0 0 9995 2 28874 55.1665 287.1952 0132779 290.3003 76.5592 2.00559172144867 NAVSTAR 58 (USA 190) 1 29486U 06042A 25185.14641081 .00000081 00000-0 00000-0 0 9996 2 29486 54.6870 165.1497 0104394 46.9336 71.8150 2.00561711137417 NAVSTAR 59 (USA 192) 1 29601U 06052A 25185.41089237 .00000057 00000-0 00000-0 0 9998 2 29601 55.0108 227.7964 0084822 86.6813 274.3630 2.00564431136439 NAVSTAR 60 (USA 196) 1 32260U 07047A 25185.71660585 -.00000055 00000-0 00000-0 0 9991 2 32260 53.8394 94.4127 0162167 81.9362 279.9112 2.00571427129849 NAVSTAR 61 (USA 199) 1 32384U 07062A 25185.77820464 -.00000071 00000-0 00000-0 0 9993 2 32384 55.3137 288.0991 0032450 159.3045 13.8165 2.00569349128546 NAVSTAR 62 (USA 201) 1 32711U 08012A 25186.13075513 .00000075 00000-0 00000+0 0 9993 2 32711 54.4663 163.7820 0199939 243.5904 114.3332 2.00559217126791 NAVSTAR 64 (USA 206) 1 35752U 09043A 25186.40576653 -.00000078 00000-0 00000+0 0 9991 2 35752 55.9777 41.1020 0055760 79.1045 133.8586 2.00574834116387 NAVSTAR 65 (USA 213) 1 36585U 10022A 25184.45194925 .00000053 00000-0 00000-0 0 9999 2 36585 54.3354 222.6140 0120507 64.0519 299.1213 2.00570867110600 NAVSTAR 66 (USA 232) 1 37753U 11036A 25185.85612740 -.00000094 00000-0 00000-0 0 9994 2 37753 56.7023 345.5200 0135785 60.5514 302.1546 2.00566301102310 NAVSTAR 67 (USA 239) 1 38833U 12053A 25186.31009405 .00000062 00000-0 00000+0 0 9997 2 38833 53.5415 157.8059 0167005 60.9365 300.7053 2.00563278 93376 NAVSTAR 68 (USA 242) 1 39166U 13023A 25184.17980283 -.00000073 00000-0 00000+0 0 9992 2 39166 54.7841 283.1725 0132927 48.1504 313.0086 2.00561021 88879 NAVSTAR 69 (USA 248) 1 39533U 14008A 25185.17546424 .00000077 00000-0 00000-0 0 9994 2 39533 53.6185 163.5103 0078797 226.1582 133.1768 2.00564795 82700 NAVSTAR 70 (USA 251) 1 39741U 14026A 25185.45406725 -.00000095 00000-0 00000-0 0 9996 2 39741 56.6419 345.0435 0034672 319.5612 40.1858 2.00573027 81562 NAVSTAR 71 (USA 256) 1 40105U 14045A 25185.54349486 -.00000042 00000-0 00000-0 0 9995 2 40105 55.1275 102.3327 0030104 115.8952 244.4178 2.00562408 79108 NAVSTAR 72 (USA 258) 1 40294U 14068A 25184.41648137 -.00000087 00000-0 00000-0 0 9998 2 40294 56.7351 44.4211 0061608 67.4756 293.2316 2.00554971 78217 NAVSTAR 73 (USA 260) 1 40534U 15013A 25185.05381602 .00000066 00000-0 00000-0 0 9994 2 40534 53.2334 218.5799 0099222 35.2158 325.5029 2.00572311 74847 NAVSTAR 74 (USA 262) 1 40730U 15033A 25185.71479434 -.00000061 00000-0 00000-0 0 9994 2 40730 54.2621 281.3949 0104063 25.2084 335.3318 2.00574001 73024 NAVSTAR 75 (USA 265) 1 41019U 15062A 25186.26882812 -.00000077 00000-0 00000+0 0 9992 2 41019 56.7129 44.2055 0103794 228.0387 131.1292 2.00567162 70871 NAVSTAR 76 (USA 266) 1 41328U 16007A 25182.86101123 -.00000022 00000-0 00000-0 0 9997 2 41328 55.3088 103.3641 0087882 242.8960 116.2099 2.00569129 68816